Regional Weather Roundup
Issued by NWS

Home | Current Version | Previous Version | Graphics & Text | Print | Product List | Glossary On
Versions: 1 2 3 4 5 6 7 8 9 10 11 12 13 14 15 16 17 18 19 20 21 22 23 24 25 26 27 28 29 30 31 32 33 34 35 36 37 38 39 40 41 42 43 44 45 46 47 48 49 50
000
ASUS45 KSLC 020110
RWRUT

UTAH REGIONAL WEATHER ROUNDUP
NATIONAL WEATHER SERVICE SALT LAKE CITY UT
700 PM MDT MON SEP 01 2014

UTZ001>011-023>025-020200-

NORTHERN UTAH

CITY           SKY/WX    TMP DP  RH WIND       PRES   REMARKS
HILL AFB       SUNNY     74  34  22 N3        30.08F
LOGAN          SUNNY     76  40  27 VRB3      30.05S
OGDEN          SUNNY     75  33  21 SW3       30.06F
PROVO AIRPORT  SUNNY     75  45  33 NW6       30.07S
SALT LAKE CITY SUNNY     77  32  19 NE9       30.04F
VERNAL         CLEAR     76  42  29 E5        30.04S
WENDOVER       SUNNY     81  34  18 E5        30.02F
HEBER CITY     SUNNY     73  36  25 SW6       30.10F
WEST JORDAN    SUNNY     77  45  31 N9        30.08S

$$

UTZ012>022-026-027-020200-

SOUTHERN UTAH

CITY           SKY/WX    TMP DP  RH WIND       PRES   REMARKS
BRYCE CANYON   SUNNY     75  33  21 NW8       30.22S
CEDAR CITY     SUNNY     85  29  13 SW13      30.04S
MILFORD        SUNNY     86  34  15 N12       30.00F
MOAB/CYNLANDS  CLEAR     87  32  14 N7        29.95S
PRICE          CLEAR     79  31  17 W8        30.09S
ST GEORGE      CLEAR     99  39  12 W10       29.84S HX  94

$$

REGIONAL REPORTS     COLORADO/ARIZONA

CITY           SKY/WX    TMP DP  RH WIND       PRES   REMARKS
CRAIG, CO      CLEAR     70  38  31 W10       30.12S
GRAND JUNCTION CLEAR     81  34  18 CALM      29.99S
RIFLE          PTCLDY    78  34  20 NW9       30.05R
MONTROSE       CLEAR     79  38  22 N9        30.09R
CORTEZ         CLEAR     84  28  13 W8        30.07S
PAGE, AZ       CLEAR     95  34  11 NW13      29.92S HX  90
GRAND CANYON   SUNNY     81  39  22 SW13G20   30.16S
KINGMAN        SUNNY     94  37  13 SW14      29.90F
FLAGSTAFF      SUNNY     76  37  24 SW9       30.22S

$$

REGIONAL REPORTS    NEVADA/IDAHO/WYOMING

CITY           SKY/WX    TMP DP  RH WIND       PRES   REMARKS
LAS VEGAS, NV  SUNNY    102  36  10 S14G24    29.71F HX  96
ELY            SUNNY     82  31  15 N8        30.08F
ELKO           SUNNY     82  23  11 W8        30.03S
POCATELLO, ID  SUNNY     72  35  25 W10       30.06F
BURLEY           N/A     71  40  32 VRB7      30.03F
EVANSTON, WY   PTCLDY    65  31  28 SW15      30.21S
ROCK SPRINGS   CLEAR     66  26  22 W17       30.16R

$$



USA.gov is the U.S. government's official web portal to all federal, state and local government web resources and services.